User: anonymous   Login
Location: C.E.K. Mees Observatory
(42.7003°N, 77.4088°W)
Time: 10:54:04
(UTC-04:00)
Language:

Envisat - Orbit

View from above orbital plane
View from above orbital plane
View from above satellite
View from above satellite

Ground track
Ground track

The orbit data is extracted from the following two-line orbital elements,

1 27386U 02009A   18203.09788285 -.00000021  00000-0  65473-5 0  9992
2 27386  98.1819 235.5092 0001387  95.8949 321.8145 14.37926094858542
Epoch (UTC): 22 July 2018 02:20:57
Eccentricity: 0.0001387
inclination: 98.1819°
perigee height: 764 km
apogee height: 766 km
right ascension of ascending node: 235.5092°
argument of perigee: 95.8949°
revolutions per day: 14.37926094
mean anomaly at epoch: 321.8145°
orbit number at epoch: 85854

The dashed part of the orbit path shows where the satellite is in the earth's shadow,  

DLR